H1 CPF 2 NER 2024 6 9 9 161 01 glonass127 H2 1106403 9127 37869 2024 6 9 0 0 0 2024 6 12 23 45 0 900 1 1 0 0 0 1 H9 10 0 60470 0.00000 0 -3753339.366 10117285.674 -23051248.311 10 0 60470 900.00000 0 -6461301.240 9238978.568 -22821931.180 10 0 60470 1800.00000 0 -9171948.892 8575769.704 -22146639.425 10 0 60470 2700.00000 0 -11815317.888 8133608.144 -21038751.700 10 0 60470 3600.00000 0 -14322576.620 7905955.418 -19520123.063 10 0 60470 4500.00000 0 -16628699.288 7874212.556 -17620635.418 10 0 60470 5400.00000 0 -18674983.518 8008673.879 -15377588.488 10 0 60470 6300.00000 0 -20411307.108 8269964.296 -12834945.112 10 0 60470 7200.00000 0 -21798030.064 8610896.244 -10042447.657 10 0 60470 8100.00000 0 -22807463.744 8978664.771 -7054624.801 10 0 60470 9000.00000 0 -23424847.846 9317285.305 -3929709.930 10 0 60470 9900.00000 0 -23648797.169 9570169.002 -728493.926 10 0 60470 10800.00000 0 -23491202.797 9682725.531 2486864.102 10 0 60470 11700.00000 0 -22976595.301 9604882.835 5654044.205 10 0 60470 12600.00000 0 -22141000.006 9293417.840 8711767.436 10 0 60470 13500.00000 0 -21030335.154 8714000.827 11600969.223 10 0 60470 14400.00000 0 -19698422.215 7842868.907 14265922.612 10 0 60470 15300.00000 0 -18204692.846 6668059.943 16655291.220 10 0 60470 16200.00000 0 -16611688.636 5190156.842 18723093.656 10 0 60470 17100.00000 0 -14982457.270 3422512.323 20429563.240 10 0 60470 18000.00000 0 -13377952.195 1390945.473 21741888.965 10 0 60470 18900.00000 0 -11854541.849 -867077.389 22634825.909 10 0 60470 19800.00000 0 -10461729.584 -3303744.482 23091165.549 10 0 60470 20700.00000 0 -9240176.490 -5862630.757 23102058.555 10 0 60470 21600.00000 0 -8220107.039 -8480791.318 22667184.896 10 0 60470 22500.00000 0 -7420162.018 -11091132.520 21794768.189 10 0 60470 23400.00000 0 -6846745.503 -13624965.884 20501433.421 10 0 60470 24300.00000 0 -6493892.893 -16014642.418 18811909.458 10 0 60470 25200.00000 0 -6343666.211 -18196161.078 16758579.966 10 0 60470 26100.00000 0 -6367061.593 -20111645.361 14380888.940 10 0 60470 27000.00000 0 -6525392.961 -21711586.478 11724609.475 10 0 60470 27900.00000 0 -6772096.004 -22956760.060 8840987.060 10 0 60470 28800.00000 0 -7054878.781 -23819735.755 5785771.415 10 0 60470 29700.00000 0 -7318129.997 -24285915.056 2618153.432 10 0 60470 30600.00000 0 -7505484.333 -24354051.635 -600373.650 10 0 60470 31500.00000 0 -7562436.440 -24036229.690 -3807207.462 10 0 60470 32400.00000 0 -7438892.068 -23357298.550 -6939860.872 10 0 60470 33300.00000 0 -7091546.338 -22353784.894 -9937192.844 10 0 60470 34200.00000 0 -6485985.661 -21072326.578 -12740620.301 10 0 60470 35100.00000 0 -5598420.877 -19567693.006 -15295285.360 10 0 60470 36000.00000 0 -4416974.538 -17900475.299 -17551152.869 10 0 60470 36900.00000 0 -2942464.239 -16134544.333 -19464014.348 10 0 60470 37800.00000 0 -1188645.552 -14334385.138 -20996376.427 10 0 60470 38700.00000 0 818098.398 -12562421.868 -22118214.349 10 0 60470 39600.00000 0 3039609.553 -10876448.087 -22807574.154 10 0 60470 40500.00000 0 5427314.902 -9327272.546 -23051010.613 10 0 60470 41400.00000 0 7924036.847 -7956681.080 -22843851.763 10 0 60470 42300.00000 0 10466177.388 -6795801.335 -22190284.790 10 0 60470 43200.00000 0 12986183.355 -5863939.210 -21103262.080 10 0 60470 44100.00000 0 15415188.002 -5167935.147 -19604230.209 10 0 60470 45000.00000 0 17685716.773 -4702065.677 -17722688.548 10 0 60470 45900.00000 0 19734342.742 -4448491.843 -15495587.785 10 0 60470 46800.00000 0 21504179.812 -4378232.517 -12966582.015 10 0 60470 47700.00000 0 22947109.196 -4452618.125 -10185151.062 10 0 60470 48600.00000 0 24025646.661 -4625159.968 -7205612.184 10 0 60470 49500.00000 0 24714373.905 -4843752.957 -4086042.316 10 0 60470 50400.00000 0 25000876.316 -5053115.992 -887133.581 10 0 60470 51300.00000 0 24886150.698 -5197364.901 2328994.416 10 0 60470 52200.00000 0 24384469.056 -5222608.058 5500001.603 10 0 60470 53100.00000 0 23522707.328 -5079454.838 8564530.043 10 0 60470 54000.00000 0 22339170.132 -4725331.598 11463379.216 10 0 60470 54900.00000 0 20881963.074 -4126508.779 14140632.210 10 0 60470 55800.00000 0 19206982.257 -3259755.433 16544712.600 10 0 60470 56700.00000 0 17375605.624 -2113553.384 18629353.672 10 0 60470 57600.00000 0 15452182.074 -688821.665 20354463.694 10 0 60470 58500.00000 0 13501421.706 1000878.034 21686873.078 10 0 60470 59400.00000 0 11585793.780 2929663.106 22600951.520 10 0 60470 60300.00000 0 9763037.971 5060166.108 23079085.435 10 0 60470 61200.00000 0 8083889.545 7344851.747 23112008.193 10 0 60470 62100.00000 0 6590110.237 9727762.342 22698977.827 10 0 60470 63000.00000 0 5312904.274 12146622.231 21847799.101 10 0 60470 63900.00000 0 4271783.736 14535217.129 20574688.918 10 0 60470 64800.00000 0 3473929.559 16825953.167 18903986.385 10 0 60470 65700.00000 0 2914074.818 18952492.590 16867711.065 10 0 60470 66600.00000 0 2574916.000 20852359.226 14504975.457 10 0 60470 67500.00000 0 2428036.553 22469407.138 11861260.230 10 0 60470 68400.00000 0 2435305.941 23756050.435 8987563.367 10 0 60470 69300.00000 0 2550697.459 24675160.840 5939437.094 10 0 60470 70200.00000 0 2722450.139 25201552.453 2775929.049 10 0 60470 71100.00000 0 2895484.845 25322989.345 -441553.301 10 0 60470 72000.00000 0 3013973.008 25040671.010 -3650433.729 10 0 60470 72900.00000 0 3023948.947 24369172.355 -6788190.620 10 0 60470 73800.00000 0 2875853.755 23335837.848 -9793588.084 10 0 60470 74700.00000 0 2526900.713 21979652.946 -12607889.326 10 0 60470 75600.00000 0 1943158.984 20349638.531 -15176026.654 10 0 60470 76500.00000 0 1101263.871 18502835.088 -17447703.013 10 0 60470 77400.00000 0 -10322.394 16501961.511 -19378401.071 10 0 60470 78300.00000 0 -1390556.068 14412847.905 -20930277.837 10 0 60470 79200.00000 0 -3025598.430 12301751.852 -22072925.230 10 0 60470 80100.00000 0 -4889154.683 10232672.907 -22783980.057 10 0 60470 81000.00000 0 -6943352.416 8264780.104 -23049570.288 10 0 60470 81900.00000 0 -9140123.256 6450062.279 -22864588.271 10 0 60470 82800.00000 0 -11423029.349 4831301.096 -22232785.461 10 0 60470 83700.00000 0 -13729457.052 3440452.347 -21166687.285 10 0 60470 84600.00000 0 -15993084.408 2297503.052 -19687330.714 10 0 60470 85500.00000 0 -18146517.280 1409850.997 -17823831.057 10 0 60471 0.00000 0 -20123981.946 772230.586 -15612788.299 10 0 60471 900.00000 0 -21863961.094 367184.796 -13097545.245 10 0 60471 1800.00000 0 -23311659.477 166060.650 -10327317.024 10 0 60471 2700.00000 0 -24421199.434 130481.404 -7356207.027 10 0 60471 3600.00000 0 -25157452.405 214230.590 -4242133.245 10 0 60471 4500.00000 0 -25497432.345 365464.737 -1045686.522 10 0 60471 5400.00000 0 -25431194.701 529158.780 2171055.565 10 0 60471 6300.00000 0 -24962206.024 649679.047 5345735.338 10 0 60471 7200.00000 0 -24107171.660 673374.305 8416918.396 10 0 60471 8100.00000 0 -22895331.582 551075.511 11325270.759 10 0 60471 9000.00000 0 -21367256.304 240399.692 14014687.989 10 0 60471 9900.00000 0 -19573195.010 -292237.669 16433355.929 10 0 60471 10800.00000 0 -17571045.811 -1069984.618 18534724.671 10 0 60471 11700.00000 0 -15424032.760 -2104356.118 20278379.316 10 0 60471 12600.00000 0 -13198185.385 -3394527.517 21630793.280 10 0 60471 13500.00000 0 -10959723.731 -4927146.792 22565952.125 10 0 60471 14400.00000 0 -8772455.027 -6676673.350 23065838.110 10 0 60471 15300.00000 0 -6695287.181 -8606230.069 23120767.859 10 0 60471 16200.00000 0 -4779959.304 -10668934.870 22729577.720 10 0 60471 17100.00000 0 -3069080.649 -12809658.972 21899653.550 10 0 60471 18000.00000 0 -1594557.199 -14967141.832 20646803.850 10 0 60471 18900.00000 0 -376469.757 -17076378.272 18994977.394 10 0 60471 19800.00000 0 577550.417 -19071181.874 16975828.807 10 0 60471 20700.00000 0 1272422.158 -20886820.903 14628137.994 10 0 60471 21600.00000 0 1725185.926 -22462619.182 11997091.837 10 0 60471 22500.00000 0 1964062.684 -23744414.715 9133439.190 10 0 60471 23400.00000 0 2027037.691 -24686773.534 6092532.909 10 0 60471 24300.00000 0 1960026.897 -25254865.237 2933275.277 10 0 60471 25200.00000 0 1814701.656 -25425919.751 -283014.338 10 0 60471 26100.00000 0 1646062.651 -25190201.534 -3493788.368 10 0 60471 27000.00000 0 1509865.489 -24551457.185 -6636493.421 10 0 60471 27900.00000 0 1460007.788 -23526814.440 -9649801.628 10 0 60471 28800.00000 0 1545990.129 -22146133.838 -12474825.479 10 0 60471 29700.00000 0 1810561.047 -20450837.955 -15056290.554 10 0 60471 30600.00000 0 2287648.931 -18492265.835 -17343640.972 10 0 60471 31500.00000 0 3000671.868 -16329621.163 -19292053.513 10 0 60471 32400.00000 0 3961300.363 -14027600.635 -20863338.304 10 0 60471 33300.00000 0 5168728.349 -11653803.127 -22026706.355 10 0 60471 34200.00000 0 6609485.820 -9276030.052 -22759387.247 10 0 60471 35100.00000 0 8257802.739 -6959591.991 -23047083.685 10 0 60471 36000.00000 0 10076509.830 -4764736.325 -22884253.381 10 0 60471 36900.00000 0 12018438.359 -2744305.215 -22274212.626 10 0 60471 37800.00000 0 14028259.349 -941722.893 -21229059.981 10 0 60471 38700.00000 0 16044683.629 610603.364 -19769422.445 10 0 60471 39600.00000 0 18002928.622 1892402.422 -17924030.439 10 0 60471 40500.00000 0 19837346.537 2896133.565 -15729131.529 10 0 60471 41400.00000 0 21484102.066 3627033.635 -13227756.259 10 0 60471 42300.00000 0 22883785.966 4102618.447 -10468852.451 10 0 60471 43200.00000 0 23983854.287 4351663.259 -7506306.928 10 0 60471 44100.00000 0 24740791.046 4412709.174 -4397875.627 10 0 60471 45000.00000 0 25121904.507 4332162.119 -1204044.701 10 0 60471 45900.00000 0 25106683.376 4162067.808 2013153.922 10 0 60471 46800.00000 0 24687658.260 3957659.016 5191348.646 10 0 60471 47700.00000 0 23870734.852 3774780.241 8269032.228 10 0 60471 48600.00000 0 22674987.544 3667298.963 11186740.683 10 0 60471 49500.00000 0 21131924.540 3684612.313 13888185.235 10 0 60471 50400.00000 0 19284257.106 3869353.085 16321316.870 10 0 60471 51300.00000 0 17184225.539 4255389.928 18439304.993 10 0 60471 52200.00000 0 14891551.898 4866203.886 20201413.668 10 0 60471 53100.00000 0 12471104.088 5713707.588 21573761.062 10 0 60471 54000.00000 0 9990366.787 6797555.153 22529949.953 10 0 60471 54900.00000 0 7516821.884 8104970.997 23051559.385 10 0 60471 55800.00000 0 5115344.219 9611104.795 23128489.753 10 0 60471 56700.00000 0 2845717.482 11279898.915 22759155.791 10 0 60471 57600.00000 0 760370.167 13065434.138 21950524.067 10 0 60471 58500.00000 0 -1097577.154 14913700.321 20717993.836 10 0 60471 59400.00000 0 -2695874.251 16764721.444 19085122.258 10 0 60471 60300.00000 0 -4014249.654 18554949.871 17083197.337 10 0 60471 61200.00000 0 -5045019.228 20219833.133 14750664.350 10 0 60471 62100.00000 0 -5793169.029 21696448.737 12132414.073 10 0 60471 63000.00000 0 -6275907.738 22926098.686 9278943.665 10 0 60471 63900.00000 0 -6521705.729 23856755.872 6245403.864 10 0 60471 64800.00000 0 -6568859.242 24445259.451 3090548.693 10 0 60471 65700.00000 0 -6463638.363 24659165.615 -124393.576 10 0 60471 66600.00000 0 -6258095.639 24478173.605 -3336907.088 10 0 60471 67500.00000 0 -6007627.287 23895063.935 -6484409.724 10 0 60471 68400.00000 0 -5768390.448 22916105.948 -9505484.598 10 0 60471 69300.00000 0 -5594686.989 21560914.217 -12341096.303 10 0 60471 70200.00000 0 -5536426.684 19861756.812 -14935766.297 10 0 60471 71100.00000 0 -5636779.964 17862342.252 -17238682.211 10 0 60471 72000.00000 0 -5930122.756 15616134.677 -19204716.995 10 0 60471 72900.00000 0 -6440363.688 13184267.519 -20795335.643 10 0 60471 73800.00000 0 -7179727.534 10633143.619 -21979369.697 10 0 60471 74700.00000 0 -8148048.934 8031823.577 -22733642.619 10 0 60471 75600.00000 0 -9332608.218 5449313.374 -23043432.605 10 0 60471 76500.00000 0 -10708517.409 2951866.615 -22902763.094 10 0 60471 77400.00000 0 -12239640.438 600416.001 -22314515.155 10 0 60471 78300.00000 0 -13880008.293 -1551757.336 -21290359.955 10 0 60471 79200.00000 0 -15575668.354 -3461018.609 -19850513.535 10 0 60471 80100.00000 0 -17266888.406 -5094955.126 -18023319.987 10 0 60471 81000.00000 0 -18890620.718 -6433468.398 -15844672.833 10 0 60471 81900.00000 0 -20383120.671 -7469339.074 -13357287.787 10 0 60471 82800.00000 0 -21682608.234 -8208244.100 -10609843.137 10 0 60471 83700.00000 0 -22731859.254 -8668229.032 -7656006.560 10 0 60471 84600.00000 0 -23480617.223 -8878661.687 -4553369.267 10 0 60471 85500.00000 0 -23887724.439 -8878715.115 -1362309.990 10 0 60472 0.00000 0 -23922884.085 -8715447.464 1855187.458 10 0 60472 900.00000 0 -23567980.904 -8441562.553 5036740.904 10 0 60472 1800.00000 0 -22817907.203 -8112948.038 8120772.716 10 0 60472 2700.00000 0 -21680862.068 -7786095.788 11047691.602 10 0 60472 3600.00000 0 -20178113.393 -7515513.641 13761027.043 10 0 60472 4500.00000 0 -18343234.775 -7351236.730 16208497.598 10 0 60472 5400.00000 0 -16220850.462 -7336541.666 18342994.191 10 0 60472 6300.00000 0 -13864941.212 -7505957.720 20123461.762 10 0 60472 7200.00000 0 -11336781.229 -7883656.463 21515664.787 10 0 60472 8100.00000 0 -8702590.609 -8482285.483 22492824.441 10 0 60472 9000.00000 0 -6030998.555 -9302293.694 23036117.355 10 0 60472 9900.00000 0 -3390419.794 -10331775.853 23135028.134 10 0 60472 10800.00000 0 -846449.712 -11546843.093 22787550.000 10 0 60472 11700.00000 0 1540617.154 -12912505.305 22000230.055 10 0 60472 12600.00000 0 3718045.411 -14384030.656 20788057.873 10 0 60472 13500.00000 0 5642602.772 -15908728.305 19174198.335 10 0 60472 14400.00000 0 7282110.691 -17428083.100 17189571.936 10 0 60472 15300.00000 0 8616538.057 -18880156.252 14872288.201 10 0 60472 16200.00000 0 9638592.305 -20202154.499 12266940.403 10 0 60472 17100.00000 0 10353782.440 -21333062.425 9423772.354 10 0 60472 18000.00000 0 10779949.826 -22216228.860 6397730.738 10 0 60472 18900.00000 0 10946284.583 -22801799.009 3247419.129 10 0 60472 19800.00000 0 10891867.075 -23048889.159 33972.285 10 0 60472 20700.00000 0 10663794.334 -22927410.459 -3180128.254 10 0 60472 21600.00000 0 10314969.413 -22419462.163 -6332274.381 10 0 60472 22500.00000 0 9901646.829 -21520232.227 -9360963.032 10 0 60472 23400.00000 0 9480838.518 -20238363.725 -12207013.802 10 0 60472 24300.00000 0 9107691.561 -18595768.206 -14814746.928 10 0 60472 25200.00000 0 8832950.930 -16626890.912 -17133096.412 10 0 60472 26100.00000 0 8700617.451 -14377456.566 -19116634.096 10 0 60472 27000.00000 0 8745903.127 -11902747.195 -20726482.359 10 0 60472 27900.00000 0 8993573.324 -9265483.893 -21931095.483 10 0 60472 28800.00000 0 9456748.572 -6533401.916 -22706892.653 10 0 60472 29700.00000 0 10136218.695 -3776621.864 -23038728.971 10 0 60472 30600.00000 0 11020299.564 -1064928.532 -22920194.572 10 0 60472 31500.00000 0 12085238.994 1534927.064 -22353735.808 10 0 60472 32400.00000 0 13296154.329 3961788.245 -21350596.532 10 0 60472 33300.00000 0 14608461.085 6162407.923 -19930581.463 10 0 60472 34200.00000 0 15969730.762 8093421.513 -18121647.586 10 0 60472 35100.00000 0 17321897.496 9722895.791 -15959333.187 10 0 60472 36000.00000 0 18603718.484 11031390.524 -13486037.535 10 0 60472 36900.00000 0 19753382.500 12012490.987 -10750167.351 10 0 60472 37800.00000 0 20711155.093 12672792.370 -7805168.734 10 0 60472 38700.00000 0 21421948.048 13031340.527 -4708465.371 10 0 60472 39600.00000 0 21837704.651 13118556.621 -1520325.487 10 0 60472 40500.00000 0 21919500.845 12974694.752 1697319.072 10 0 60472 41400.00000 0 21639275.084 12647900.964 4882077.766 10 0 60472 42300.00000 0 20981115.902 12191958.060 7972306.499 10 0 60472 43200.00000 0 19942055.243 11663813.005 10908289.907 10 0 60472 44100.00000 0 18532336.427 11120991.802 13633378.773 10 0 60472 45000.00000 0 16775147.496 10619010.403 16095062.032 10 0 60472 45900.00000 0 14705832.556 10208889.408 18245954.655 10 0 60472 46800.00000 0 12370614.747 9934875.195 20044684.686 10 0 60472 47700.00000 0 9824883.957 9832460.936 21456664.831 10 0 60472 48600.00000 0 7131119.410 9926788.288 22454736.241 10 0 60472 49500.00000 0 4356531.468 10231494.778 23019674.350 10 0 60472 50400.00000 0 1570517.782 10748053.801 23140548.793 10 0 60472 51300.00000 0 -1157963.956 11465634.334 22814931.661 10 0 60472 52200.00000 0 -3763001.255 12361486.695 22048950.502 10 0 60472 53100.00000 0 -6184205.389 13401839.587 20857184.641 10 0 60472 54000.00000 0 -8368963.431 14543273.182 19262405.628 10 0 60472 54900.00000 0 -10274372.545 15734513.601 17295164.939 10 0 60472 55800.00000 0 -11868777.459 16918576.779 14993234.445 10 0 60472 56700.00000 0 -13132847.554 18035174.886 12400907.693 10 0 60472 57600.00000 0 -14060148.163 19023286.945 9568172.663 10 0 60472 58500.00000 0 -14657180.906 19823787.440 6549769.326 10 0 60472 59400.00000 0 -14942889.646 20382023.192 3404148.023 10 0 60472 60300.00000 0 -14947650.801 20650229.677 192347.125 10 0 60472 61200.00000 0 -14711788.611 20589683.473 -3023189.064 10 0 60472 62100.00000 0 -14283676.485 20172497.653 -6179829.388 10 0 60472 63000.00000 0 -13717503.751 19382981.143 -9215987.527 10 0 60472 63900.00000 0 -13070802.194 18218501.076 -12072340.911 10 0 60472 64800.00000 0 -12401837.866 16689808.086 -14693011.250 10 0 60472 65700.00000 0 -11766980.195 14820807.376 -17026681.400 10 0 60472 66600.00000 0 -11218162.036 12647782.422 -19027624.323 10 0 60472 67500.00000 0 -10800540.826 10218101.915 -20656621.714 10 0 60472 68400.00000 0 -10550462.557 7588463.192 -21881752.202 10 0 60472 69300.00000 0 -10493817.268 4822745.685 -22679031.952 10 0 60472 70200.00000 0 -10644857.647 1989564.998 -23032893.861 10 0 60472 71100.00000 0 -11005532.102 -840368.801 -22936495.246 10 0 60472 72000.00000 0 -11565361.075 -3596976.623 -22391847.808 10 0 60472 72900.00000 0 -12301861.592 -6213504.064 -21409767.689 10 0 60472 73800.00000 0 -13181501.111 -8629069.641 -20009647.448 10 0 60472 74700.00000 0 -14161138.721 -10790960.382 -18219055.684 10 0 60472 75600.00000 0 -15189890.743 -12656578.998 -16073173.766 10 0 60472 76500.00000 0 -16211339.652 -14194962.252 -13614082.510 10 0 60472 77400.00000 0 -17165990.788 -15387808.949 -10889914.801 10 0 60472 78300.00000 0 -17993871.179 -16229977.281 -7953892.712 10 0 60472 79200.00000 0 -18637159.328 -16729434.156 -4863269.844 10 0 60472 80100.00000 0 -19042734.188 -16906662.472 -1678201.280 10 0 60472 81000.00000 0 -19164535.774 -16793555.181 1539435.494 10 0 60472 81900.00000 0 -18965638.589 -16431846.305 4727244.853 10 0 60472 82800.00000 0 -18419951.884 -15871148.055 7823518.666 10 0 60472 83700.00000 0 -17513476.995 -15166678.911 10768420.184 10 0 60472 84600.00000 0 -16245070.953 -14376779.571 13505124.122 10 0 60472 85500.00000 0 -14626686.227 -13560321.501 15980892.297 10 0 60473 0.00000 0 -12683078.373 -12774116.346 18148065.860 10 0 60473 900.00000 0 -10450993.591 -12070432.974 19964958.398 10 0 60473 1800.00000 0 -7977872.934 -11494725.241 21396632.368 10 0 60473 2700.00000 0 -5320122.882 -11083661.852 22415550.281 10 0 60473 3600.00000 0 -2541024.983 -10863539.521 23002087.385 10 0 60473 4500.00000 0 291632.134 -10849143.461 23144898.993 10 0 60473 5400.00000 0 3108103.136 -11043101.621 22841136.389 10 0 60473 6300.00000 0 5839316.557 -11435759.284 22096507.581 10 0 60473 7200.00000 0 8419480.013 -12005579.811 20925181.387 10 0 60473 8100.00000 0 10788555.288 -12720056.217 19349535.518 10 0 60473 9000.00000 0 12894503.235 -13537097.677 17399751.673 10 0 60473 9900.00000 0 14695207.009 -14406835.572 15113263.033 10 0 60473 10800.00000 0 16159994.485 -15273776.207 12534062.096 10 0 60473 11700.00000 0 17270696.293 -16079212.490 9711879.352 10 0 60473 12600.00000 0 18022194.267 -16763795.285 6701246.073 10 0 60473 13500.00000 0 18422435.725 -17270157.451 3560457.036 10 0 60473 14400.00000 0 18491910.916 -17545480.197 350451.621 10 0 60473 15300.00000 0 18262613.476 -17543892.602 -2866365.941 10 0 60473 16200.00000 0 17776525.806 -17228601.002 -6027344.427 10 0 60473 17100.00000 0 17083691.867 -16573655.475 -9070817.294 10 0 60473 18000.00000 0 16239958.185 -15565275.283 -11937322.835 10 0 60473 18900.00000 0 15304478.725 -14202673.560 -14570787.189 10 0 60473 19800.00000 0 14337090.205 -12498342.684 -16919644.898 10 0 60473 20700.00000 0 13395670.632 -10477785.029 -18937872.696 10 0 60473 21600.00000 0 12533595.039 -8178697.764 -20585914.012 10 0 60473 22500.00000 0 11797398.532 -5649644.210 -21831473.946 10 0 60473 23400.00000 0 11224747.869 -2948266.698 -22650167.410 10 0 60473 24300.00000 0 10842809.388 -139115.946 -23026006.468 10 0 60473 25200.00000 0 10667083.716 2708811.401 -22951716.562 10 0 60473 26100.00000 0 10700757.209 5524722.702 -22428875.240 10 0 60473 27000.00000 0 10934597.384 8238754.404 -21467871.003 10 0 60473 27900.00000 0 11347395.804 10784657.031 -20087683.884 10 0 60473 28800.00000 0 11906938.037 13102326.787 -18315493.318 10 0 60473 29700.00000 0 12571457.457 15140077.583 -16186122.568 10 0 60473 30600.00000 0 13291508.930 16856558.928 -13741332.410 10 0 60473 31500.00000 0 14012180.565 18222240.707 -11028979.905 10 0 60473 32400.00000 0 14675547.628 19220404.887 -8102060.734 10 0 60473 33300.00000 0 15223262.939 19847605.545 -5017655.704 10 0 60473 34200.00000 0 15599172.911 20113581.413 -1835803.769 10 0 60473 35100.00000 0 15751848.100 20040628.406 1381675.128 10 0 60473 36000.00000 0 15636921.607 19662462.221 4572383.557 10 0 60473 36900.00000 0 15219137.550 19022622.184 7674552.625 10 0 60473 37800.00000 0 14474024.750 18172486.107 10628227.382 10 0 60473 38700.00000 0 13389126.980 17168981.402 13376409.488 10 0 60473 39600.00000 0 11964739.996 16072089.384 15866136.436 10 0 60473 40500.00000 0 10214126.047 14942247.272 18049478.458 10 0 60473 41400.00000 0 8163198.090 13837755.647 19884436.176 10 0 60473 42300.00000 0 5849687.314 12812298.027 21335724.193 10 0 60473 43200.00000 0 3321828.262 11912673.961 22375428.032 10 0 60473 44100.00000 0 636614.891 11176837.833 22983524.054 10 0 60473 45000.00000 0 -2142302.175 10632322.915 23148254.158 10 0 60473 45900.00000 0 -4946992.861 10295114.577 22866349.286 10 0 60473 46800.00000 0 -7707804.220 10169018.498 22143097.904 10 0 60473 47700.00000 0 -10355993.910 10245549.995 20992257.814 10 0 60473 48600.00000 0 -12826334.843 10504349.692 19435811.874 10 0 60473 49500.00000 0 -15059585.895 10914109.672 17503570.503 10 0 60473 50400.00000 0 -17004728.254 11433973.449 15232626.260 10 0 60473 51300.00000 0 -18620875.669 12015353.615 12666668.286 10 0 60473 52200.00000 0 -19878779.311 12604093.400 9855167.021 10 0 60473 53100.00000 0 -20761863.707 13142883.504 6852442.267 10 0 60473 54000.00000 0 -21266748.913 13573834.017 3716630.383 10 0 60473 54900.00000 0 -21403235.015 13841093.683 508568.843 10 0 60473 55800.00000 0 -21193747.226 13893405.579 -2709381.123 10 0 60473 56700.00000 0 -20672262.725 13686489.782 -5874551.132 10 0 60473 57600.00000 0 -19882762.578 13185149.903 -8925197.299 10 0 60473 58500.00000 0 -18877272.809 12365011.192 -11801721.589 10 0 60473 59400.00000 0 -17713576.942 11213813.107 -14447857.246 10 0 60473 60300.00000 0 -16452697.027 9732197.880 -16811792.989 10 0 60473 61200.00000 0 -15156250.826 7933958.180 -18847211.558 10 0 60473 62100.00000 0 -13883798.649 5845730.349 -20514220.016 10 0 60473 63000.00000 0 -12690294.095 3506143.683 -21780151.471 10 0 60473 63900.00000 0 -11623748.676 964460.115 -22620220.715 10 0 60473 64800.00000 0 -10723210.966 -1721239.196 -23018019.684 10 0 60473 65700.00000 0 -10017147.133 -4486244.088 -22965842.212 10 0 60473 66600.00000 0 -9522292.071 -7261689.686 -22464831.536 10 0 60473 67500.00000 0 -9243019.647 -9977209.926 -21524947.917 10 0 60473 68400.00000 0 -9171257.775 -12563657.838 -20164757.856 10 0 60473 69300.00000 0 -9286950.285 -14955777.499 -18411050.232 10 0 60473 70200.00000 0 -9559043.741 -17094715.119 -16298288.488 10 0 60473 71100.00000 0 -9946954.774 -18930264.047 -13867911.370 10 0 60473 72000.00000 0 -10402452.958 -20422750.358 -11167497.937 10 0 60473 72900.00000 0 -10871876.738 -21544481.612 -8249815.182 10 0 60473 73800.00000 0 -11298586.212 -22280700.399 -5171768.756 10 0 60473 74700.00000 0 -11625547.041 -22630005.688 -1993279.102 10 0 60473 75600.00000 0 -11797935.015 -22604227.764 1223893.772 10 0 60473 76500.00000 0 -11765650.774 -22227765.605 4417353.021 10 0 60473 77400.00000 0 -11485638.821 -21536417.959 7525271.389 10 0 60473 78300.00000 0 -10923914.057 -20575760.172 10487578.118 10 0 60473 79200.00000 0 -10057211.974 -19399137.090 13247104.182 10 0 60473 80100.00000 0 -8874194.884 -18065357.551 15750665.059 10 0 60473 81000.00000 0 -7376165.250 -16636187.330 17950062.063 10 0 60473 81900.00000 0 -5577257.593 -15173744.789 19802985.243 10 0 60473 82800.00000 0 -3504101.742 -13737906.517 21273802.895 10 0 60473 83700.00000 0 -1194971.433 -12383829.114 22334225.033 10 0 60473 84600.00000 0 1301547.222 -11159687.865 22963830.301 10 0 60473 85500.00000 0 3928313.840 -10104723.990 23150448.036 99